Location: Celina Division
(33.3022°N, 96.7580°W)
Time: 15:22:13
(UTC+00:00)

DUCHIFAT 1 - Pass Details

Date: 07 April 2023
Orbit: 567 x 581 km, 98.1° (Epoch: 28 May)

Event Time Altitude Azimuth Distance (km) Brightness Sun altitude
Rises 09:55:36 0° 6° (N) 2,774 ? -26.8°
Reaches altitude 10° 09:57:47 10° 1° (N) 1,872 ? -26.4°
Enters shadow 09:59:41 26° 349° (N) 1,149 ? -26.0°
